www.pogodaiklimat.ru

Погода и климат >> Архив погоды >> Хорватия >> Осиек аэропорт


ПОГОДА в Осиек аэропорту

  • Прогноз погоды в Осиек аэропорту
  • Монитор погоды в Осиек аэропорту

АРХИВ ПОГОДЫ в Осиек аэропорту

Время (UTC), дата Ветер
(напр.,м/с)
 
Видим.   Явления Облачность Т
(С)
Тd
(С)
f
(%)
Тe
(С)
Тes
(С)
Комфортность P
(гПа)
Po
(гПа)
Тmin
(С)
Tmax
(С)
R
(мм)
R24
(мм)
S
(см)
18 17.06 ЮЗ 2 20 км 8/0
[Ac und]
+23.6 +20.7 84 +29 +30 душно 1015.3 1005.1 +26.3
21 17.06 СВ 5 6000 м сильн. гроза, ливневой дождь 10/5 1000 м
[Cb calv Ac As]
+19.0 +18.4 96 +20 +20 1016.2 1005.8
00 18.06 З 3 10 км {гроза, ливн. осадки} 8/3 1500 м
[Sc Ac trans Ci fib]
+17.2 +16.8 97 +17 +17 1016.1 1005.6 4
03 18.06 СЗ 3 10 км 1/0
[Ci fib]
+16.5 +16.0 97 +16 +16 1016.0 1005.5
06 18.06 СВ 3 10 км 8/5 500 м
[Sc Ac trans]
+19.9 +18.8 93 +23 +25 комфорт 1016.8 1006.4 +16.3 4
09 18.06 ЮЗ 2 10 км 8/8 700 м
[Cu Sc]
+23.6 +19.3 77 +29 +32 душно 1016.9 1006.6
12 18.06 СВ 2 10 км 4/4 1050 м
[Cu med, cong]
+26.3 +19.3 65 +32 +42 очень
душно
1015.6 1005.4
15 18.06 З 2 15 км 4/3 1110 м
[Cu med, cong Ci ing]
+27.8 +19.2 60 +33 +38 очень
душно
1013.9 1003.8
18 18.06 ЮВ 2 15 км 8/3 1000 м
[Cu med, cong Cs]
+24.4 +20.8 80 +30 +31 очень
душно
1014.2 1004.0 +28.2
21 18.06 ЮВ 3 10 км 8/4 900 м
[Sc Ac As Cs]
+21.7 +19.6 88 +27 +27 душно 1015.2 1004.9
00 19.06 СВ 1 10 км 8/3 1300 м
[Sc Ac trans Cs]
+19.5 +18.1 92 +23 +23 комфорт 1014.1 1003.7
03 19.06 В 2 10 км 8/0
[Ac trans Cs]
+18.7 +17.8 95 +20 +20 1013.8 1003.4
06 19.06 ЮВ 3 7000 м дымка 9/3 1000 м
[Sc Ac As]
+19.9 +18.5 92 +23 +25 комфорт 1014.5 1004.1 +18.4
09 19.06 ЮВ 2 10 км {дождь} 3/1 1020 м
[Cu hum Ac trans]
+24.7 +19.4 72 +30 +43 очень
душно
1013.9 1003.7
12 19.06 В 3 15 км {дождь} 1/1 1200 м
[Cu hum]
+26.7 +18.4 60 +31 +45 душно 1012.2 1002.1 0.1
15 19.06 В 2 15 км 3/3 1200 м
[Cu med, cong Ci ing]
+28.2 +19.0 57 +33 +38 очень
душно
1010.4 1000.4
18 19.06 штиль 0 15 км 3/0
[Ci sp]
+26.8 +18.2 59 +31 +32 душно 1010.7 1000.6 +29.4 0.1
21 19.06 ЮЗ 8
{18}
4000 м гроза, ливневой дождь 10/10 900 м
[Cb cap]
+20.4 +16.8 80 +23 +23 комфорт 1012.2 1001.8
00 20.06 СЗ 3 10 км {гроза, ливн. осадки} 9/9 1110 м
[Cu Sc]
+18.8 +17.3 91 +20 +20 1012.7 1002.3 3
03 20.06 З 2 6000 м дымка {гроза, ливн. осадки} 3/0
[Ac trans Ci sp]
+17.2 +16.9 98 +18 +18 1011.7 1001.2
06 20.06 Ю 2 15 км {гроза, ливн. осадки} ясно +20.6 +18.5 88 +25 +31 комфорт 1012.4 1002.1 +16.8 7
09 20.06 З 2 20 км 1/1 900 м
[Cu hum]
+25.8 +19.2 67 +31 +46 очень
душно
1012.3 1002.2
12 20.06 ЮЗ 5 15 км гроза без осадков 6/6 800 м
[Cb cap]
+24.3 +18.8 71 +29 +33 душно 1012.0 1001.8
15 20.06 СЗ 2 20 км {гроза} 5/3 1000 м
[Cu hum Ci sp]
+28.1 +18.9 57 +33 +38 очень
душно
1010.4 1000.4
18 20.06 СВ 5 20 км {гроза} 3/0
[Ci fib]
+24.6 +20.1 76 +30 +30 очень
душно
1011.7 1001.5 +28.3
21 20.06 ЮВ 3 15 км ясно +19.8 +18.6 93 +23 +23 комфорт 1012.9 1002.6
00 21.06 ЮВ 2 15 км ясно +18.5 +17.9 96 +20 +20 1013.1 1002.7
03 21.06 В 2 4000 м дымка 1/0
[Ac trans]
+17.1 +16.8 98 +17 +17 1013.9 1003.4
06 21.06 З 2 10 км 1/1 1300 м
[Cu hum]
+22.2 +19.2 83 +28 +33 душно 1015.3 1005.0 +17.0
09 21.06 СВ 2 15 км 1/0
[Ac trans]
+26.2 +19.6 67 +32 +47 очень
душно
1015.8 1005.6
12 21.06 ЮЗ 3 15 км 8/5 900 м
[Cu Sc Ac As Cs]
+27.3 +19.8 64 +33 +39 очень
душно
1015.2 1005.1
15 21.06 СЗ 3 20 км 8/0
[Ac trans Cs]
+26.7 +19.6 65 +32 +37 очень
душно
1014.7 1004.6
18 21.06 СВ 2 20 км 5/0
[Ci fib]
+25.6 +20.8 75 +32 +32 очень
душно
1015.1 1004.9 +28.5
21 21.06 штиль 0 20 км ясно +20.8 +19.8 94 +25 +25 комфорт 1016.1 1005.8
00 22.06 СЗ 2 10 км ясно +19.2 +18.4 95 +22 +22 комфорт 1016.3 1005.9
03 22.06 ЮЗ 1 10 км ясно +17.9 +17.4 97 +19 +19 1016.8 1006.1
06 22.06 В 1 10 км ясно +23.5 +20.0 81 +29 +35 душно 1016.9 1006.6 +17.6
09 22.06 В 1 20 км 3/1 1110 м
[Cu med, cong Ci fib]
+27.5 +18.3 57 +32 +49 очень
душно
1017.2 1007.1
12 22.06 СВ 3 20 км 6/1 1200 м
[Cu hum Cs]
+29.3 +18.3 52 +34 +46 очень
душно
1015.7 1005.6
15 22.06 ЮВ 4 20 км 4/0
[Ac trans Ci fib]
+29.7 +18.9 52 +35 +39 очень
душно
1013.4 1003.4
18 22.06 З 8 10 км 10/4 400 м
[Sc Ac As Cs]
+25.3 +21.5 79 +32 +32 очень
душно
1014.2 1004.0 +30.0
21 22.06 В 4 10 км в посл. час гроза {ливн. осадки} 10/8 1200 м
[Sc Ac As]
+18.4 +17.3 93 +19 +19 1014.2 1003.8
00 23.06 ЮЗ 3 10 км в посл. час гроза {ливн. осадки} 10/8 500 м
[Sc Ac As]
+18.7 +18.3 98 +20 +20 1015.2 1004.8 8
03 23.06 З 2 6000 м дымка {гроза, дождь} 10/8 500 м
[Sc Ac As]
+18.1 +17.8 98 +19 +19 1001.3 1003.4
06 23.06 С 5 6000 м гроза, ливневой дождь 9/9 450 м
[Cb cap]
+19.0 +18.3 96 +20 +21 1014.3 1003.9 +17.8 9
09 23.06 С 5 10 км гроза, ливневой дождь 9/9 210 м
[Cb cap]
+18.4 +17.8 96 +19 +20 1015.0 1004.6
12 23.06 СВ 3 15 км в посл. час дождь {гроза, ливн. осадки} 8/8 700 м
[Cu Sc]
+20.6 +19.3 92 +25 +28 комфорт 1015.1 1004.8 9
15 23.06 СЗ 1 15 км 6/3 900 м
[Cu hum Ac trans Cs]
+24.1 +18.6 71 +29 +33 душно 1014.1 1003.9
18 23.06 С 2 20 км 6/3 1000 м
[Cu med, cong Ac trans Cs]
+22.5 +18.6 79 +28 +28 душно 1014.7 1004.4 +24.6 9
21 23.06 З 4 15 км 10/0
[Ac trans Cs]
+19.1 +18.3 95 +21 +21 комфорт 1015.3 1004.9
00 24.06 З 4 15 км 10/0
[Ac As]
+18.3 +17.7 96 +19 +19 1015.8 1005.4
03 24.06 З 4 7000 м слаб. дождь 10/8 1000 м
[Sc As op]
+18.6 +18.1 97 +20 +20 1015.6 1005.2
06 24.06 З 3 7000 м дымка {дождь} 10/10 400 м
[Sc]
+19.0 +18.5 97 +21 +21 комфорт 1016.9 1006.5 +18.2 1
09 24.06 С 4 1000 м ливневой дождь 10/10 210 м
[Cu Sc]
+19.5 +18.9 96 +22 +22 комфорт 1017.9 1007.5
12 24.06 С 4 15 км в посл. час дождь {ливн. осадки} 8/4 400 м
[St Ac As]
+22.4 +20.2 87 +29 +33 очень
душно
1018.2 1007.9 10
15 24.06 СВ 5 20 км 3/3 900 м
[Cu hum]
+25.2 +18.7 67 +30 +33 душно 1017.7 1007.5

 

Местоположение метеостанции Осиек аэропорт (Хорватия): широта 45.47 долгота 18.82 высота над уровнем моря 87 м.

В архиве по умолчанию представлена погода в Осиек аэропорту за последнюю неделю. Архивные данные за месяц целиком и за предыдущие месяцы, начиная с января 2011 года, Вы можете получить, выбрав интересующий диапазон дат из раскрывающегося списка и нажав кнопку "Ввод!".


*Определитесь, кто Вы:
робот инопланетянин человек

Внимание! Время в таблицах - всемирное. Для получения местного времени необходимо прибавить поправку, которая равна 1 ч.

Смотрите также архив погоды в соседних городах и на ближайших метеорологических станциях:

Погода в Осиек-Чепине (Хорватия) (20 км)
Погода в Градиште (Хорватия) (37 км)
Погода в Сомборе (Сербия) (42 км)
Погода в Сремска-Митровице (Сербия) (70 км)
Погода в Славонски-Броде (Хорватия) (72 км)
Погода в Градачаце (Босния и Герцеговина) (72 км)
Погода в Пече (Венгрия) (75 км)
Погода в Байе (Венгрия) (80 км)
Погода в Нови-Саде (Сербия) (82 км)
Погода в Паличе (Сербия) (102 км)

Пояснения к столбцам:

Ветер - указаны скорость ветра в м/с - средняя за 10 мин, порывы в срок и между сроками (в фигурных скобках) и направление, откуда дует ветер: С - северный, СВ - северо-восточный, В - восточный, ЮВ - юго-восточный, Ю - южный, ЮЗ - юго-западный, З - западный, СЗ - северо-западный.
Видимость - горизонтальная дальность видимости в метрах или километрах. При видимости от 1 до 10 км при отсутствии осадков обычно наблюдается дымка, при ухудшении видимости до 1 км и менее - туман. В сухую погоду видимость может ухудшаться дымом, пылью или мглою.
Явления - указаны атмосферные явления, наблюдавшиеся в срок или в последний час перед сроком; фигурными скобками обозначены явления, наблюдавшиеся между сроками (за 1-3 часа до срока); квадратными скобками обозначены град или гололедные отложения с указанием их диаметра в мм.
Облачность - указаны через наклонную черту общая и нижняя облачность в баллах и высота нижней границы облаков в метрах; квадратными скобками обозначены формы облаков: Ci - перистые, Cs - перисто-слоистые, Cc - перисто-кучевые, Ac - высококучевые, As - высокослоистые, Sc - слоисто-кучевые, Ns - слоисто-дождевые, Cu - кучевые, Cb - кучево-дождевые. Подробнее классификацию облаков см. в Атласе облаков (PDF).
T - Температура воздуха - температура, измеренная на высоте 2 м над землей.
Td - Температура точки росы - температура, при понижении до которой содержащийся в воздухе водяной пар достигнет насыщения.
f - Относительная влажность воздуха - влажноcть воздуха, измеренная на высоте 2 м над землей.
Te - Эффективная температура - температура, которую ощущает одетый по сезону человек в тени. Характеристика душности погоды. При расчете учитывается влияние влажности воздуха и скорости ветра на теплоощущения человека.
Tes - Эффективная температура на солнце - температура, которую ощущает человек, с поправкой на солнечный нагрев. Характеристика знойности погоды. Зависит от высоты солнца над горизонтом, облачности и скорости ветра. Ночью, в пасмурную погоду, а также при ветре 12 м/с и более поправка равна нулю.
P - Атмосферное давление - приведенное к уровню моря атмосферное давление.
Po - Атмосферное давление - измеренное на уровне метеостанции атмосферное давление.
Tmin - Минимальная температура - минимум температуры воздуха на высоте 2 м над землей.
Tmax - Максимальная температура - максимум температуры воздуха на высоте 2 м над землей.
R - Количество осадков - Количество выпавших осадков за период времени, мм. При наведении курсора мыши на число - период времени, за который выпало указанное количество осадков.
R24 - Количество осадков - Количество выпавших осадков за 24 часа, мм.
S - Снежный покров - Высота снежного покрова, см. При наведении курсора мыши на число - состояние снежного покрова и степень покрытия местности в баллах.